(501010) = 2013 RW36

Discovered at Kitt Peak on 2013-09-03 by Spacewatch.

Orbit

Orbit type: Main Belt

Note: WebGL enabled browser required.

epoch2022-01-21.0
epoch JD2459600.5
perihelion date2021-10-28.27130
perihelion JD2459515.77130
argument of perihelion (°)158.82104
ascending node (°)165.50207
inclination (°)2.45783
eccentricity0.2243053
perihelion distance (AU)2.0160628
Tisserand w.r.t. Jupiter3.4
ΔV w.r.t. Earth (km/sec)9.0
semimajor axis (AU)2.5990415
mean anomaly (°)19.93033
mean daily motion (°/day)0.23522530
aphelion distance (AU)3.182
period (years)4.19
P-vector [x]0.81240204
P-vector [y]-0.54095564
P-vector [z]-0.21764630
Q-vector [x]0.58299885
Q-vector [y]0.76043210
Q-vector [z]0.28610376
absolute magnitude17.99
phase slope0.15
uncertainty1
referenceMPO 700943
observations used66
oppositions5
arc length (days)4389
first opposition used2005
last opposition used2017
residual rms (arc-secs)0.36
perturbers coarse indicatorM-v
perturbers precise indicator003Ek
first observation date used2005-11-01.0
last observation date used2017-11-07.0
computer namePan
JD of orbit computation2458010.270124
perihelion JD uncertainty (days)4.6528E-04
argument of perihelion uncertainty (°)1.9002E-04
ascending node uncertainty (°)6.9973E-05
inclination uncertainty (°)6.5937E-06
eccentricity uncertainty 2.2771E-07
perihelion distance uncertainty (AU)6.9792E-07
Minimum Orbit Intersection Distances (in AU)
for orbit epoch: 2458200.5, reference: MPO428191
Mercury1.60687
Venus1.29387
Earth1.00657
Mars0.639631
Jupiter2.15292
Saturn6.01825
Uranus15.0666
Neptune26.9093

Observations

66 total observations over interval: 2005 11 01.38153 – 2017 11 07.25094
These data are available for download (format description).

Date (UT) J2000 RA J2000 Dec Magn Location Ref
2005 11 01.38153 04 22 04.87 +17 49 33.8 20.9 V G96 – Mt. Lemmon Survey MPS 497204
2005 11 01.38954 04 22 04.47 +17 49 32.7 20.8 V G96 – Mt. Lemmon Survey MPS 497204
2005 11 01.39760 04 22 04.11 +17 49 30.9 21.6 V G96 – Mt. Lemmon Survey MPS 497204
2005 11 01.40561 04 22 03.72 +17 49 30.0 21.1 V G96 – Mt. Lemmon Survey MPS 497204
2008 04 28.29054 14 29 18.34 -11 23 29.9 21.4 V G96 – Mt. Lemmon Survey MPS 497204
2008 04 28.29715 14 29 17.98 -11 23 27.2 20.8 V G96 – Mt. Lemmon Survey MPS 497204
2008 04 28.30367 14 29 17.62 -11 23 25.4 21.1 V G96 – Mt. Lemmon Survey MPS 497204
2008 04 28.31021 14 29 17.23 -11 23 23.2 21.3 V G96 – Mt. Lemmon Survey MPS 497204
2009 11 19.24036 02 09 11.88 +09 25 08.6 21.1 V G96 – Mt. Lemmon Survey MPS 497204
2009 11 19.24556 02 09 11.62 +09 25 07.7 21.1 V G96 – Mt. Lemmon Survey MPS 497204
2009 11 19.25079 02 09 11.44 +09 25 06.9 21.3 V G96 – Mt. Lemmon Survey MPS 497204
2009 11 19.25599 02 09 11.23 +09 25 05.2 21.2 V G96 – Mt. Lemmon Survey MPS 497204
2013 09 03.27662 00 39 45.28 +03 21 36.3 21.1 V 691 – Steward Observatory, Kitt Peak-Spacewatch MPS 476579
2013 09 03.29426 00 39 44.80 +03 21 30.6 20.3 V 691 – Steward Observatory, Kitt Peak-Spacewatch MPS 476579
2013 09 03.31190 00 39 44.31 +03 21 26.2 20.6 V 691 – Steward Observatory, Kitt Peak-Spacewatch MPS 476579
2013 09 09.45415 00 36 32.600 +02 48 45.00 20.5 w F51 – Pan-STARRS 1, Haleakala MPS 476579
2013 09 09.46995 00 36 31.995 +02 48 39.52 20.4 w F51 – Pan-STARRS 1, Haleakala MPS 476579
2013 09 09.48467 00 36 31.427 +02 48 34.41 20.4 w F51 – Pan-STARRS 1, Haleakala MPS 476579
2013 09 09.49940 00 36 30.861 +02 48 29.33 20.6 w F51 – Pan-STARRS 1, Haleakala MPS 476579
2013 09 23.39295 00 26 40.62 +01 18 44.3 19.9 V G96 – Mt. Lemmon Survey MPS 477849
2013 09 23.39829 00 26 40.36 +01 18 42.6 19.6 V G96 – Mt. Lemmon Survey MPS 477849
2013 09 23.40366 00 26 40.11 +01 18 40.5 19.7 V G96 – Mt. Lemmon Survey MPS 477849
2013 09 23.40895 00 26 39.83 +01 18 38.1 19.5 V G96 – Mt. Lemmon Survey MPS 477849
2013 09 24.37272 00 25 54.44 +01 12 02.6 19.2 V G96 – Mt. Lemmon Survey MPS 477849
2013 09 24.37796 00 25 54.18 +01 12 00.3 19.7 V G96 – Mt. Lemmon Survey MPS 477849
2013 09 24.38326 00 25 53.91 +01 11 57.9 19.5 V G96 – Mt. Lemmon Survey MPS 477849
2013 09 24.38854 00 25 53.63 +01 11 55.8 19.5 V G96 – Mt. Lemmon Survey MPS 477849
2013 09 29.41814 00 21 54.22 +00 37 44.1 20.3 V 703 – Catalina Sky Survey MPS 480275
2013 09 29.42447 00 21 53.94 +00 37 40.7 20.6 V 703 – Catalina Sky Survey MPS 480275
2013 09 29.43077 00 21 53.60 +00 37 38.5 19.4 V 703 – Catalina Sky Survey MPS 480275
2013 09 29.43701 00 21 53.39 +00 37 34.4 20.1 V 703 – Catalina Sky Survey MPS 480275
2013 10 05.29882 00 17 21.38 -00 00 34.5 20.3 V 703 – Catalina Sky Survey MPS 480275
2013 10 05.30440 00 17 20.95 -00 00 37.5 19.9 V 703 – Catalina Sky Survey MPS 480275
2013 10 05.30998 00 17 20.73 -00 00 39.0 19.6 V 703 – Catalina Sky Survey MPS 480275
2013 10 05.31556 00 17 20.55 -00 00 41.8 20.8 V 703 – Catalina Sky Survey MPS 480275
2013 10 21.29412 00 07 32.174 -01 21 51.86 20.5 r F51 – Pan-STARRS 1, Haleakala MPS 482493
2013 10 21.30454 00 07 31.862 -01 21 54.08 20.6 r F51 – Pan-STARRS 1, Haleakala MPS 482493
2013 10 21.36116 00 07 30.199 -01 22 06.41 20.7 i F51 – Pan-STARRS 1, Haleakala MPS 482493
2013 10 21.37255 00 07 29.871 -01 22 08.79 20.8 i F51 – Pan-STARRS 1, Haleakala MPS 482493
2017 07 21.16486 21 52 45.93 -10 13 41.7 20.5 R J04 – ESA Optical Ground Station, Tenerife MPS 805405
2017 07 21.17655 21 52 45.70 -10 13 43.3 20.5 R J04 – ESA Optical Ground Station, Tenerife MPS 805405
2017 07 21.18824 21 52 45.40 -10 13 45.3 20.7 R J04 – ESA Optical Ground Station, Tenerife MPS 805405
2017 07 21.19993 21 52 45.12 -10 13 47.2 20.2 R J04 – ESA Optical Ground Station, Tenerife MPS 805405
2017 07 30.44813 21 48 19.767 -10 47 12.37 20.2 w F51 – Pan-STARRS 1, Haleakala MPS 807953
2017 07 30.45007 21 48 19.685 -10 47 12.93 20.1 w F51 – Pan-STARRS 1, Haleakala MPS 807953
2017 07 30.45910 21 48 19.343 -10 47 15.19 20.3 w F51 – Pan-STARRS 1, Haleakala MPS 807953
2017 07 30.46103 21 48 19.266 -10 47 15.73 20.2 w F51 – Pan-STARRS 1, Haleakala MPS 807953
2017 07 30.47007 21 48 18.925 -10 47 18.05 20.4 w F51 – Pan-STARRS 1, Haleakala MPS 807953
2017 07 30.47201 21 48 18.844 -10 47 18.71 20.3 w F51 – Pan-STARRS 1, Haleakala MPS 807953
2017 07 30.48104 21 48 18.499 -10 47 20.94 20.3 w F51 – Pan-STARRS 1, Haleakala MPS 807953
2017 07 30.48298 21 48 18.420 -10 47 21.48 20.2 w F51 – Pan-STARRS 1, Haleakala MPS 807953
2017 08 15.41271 21 37 13.160 -12 10 00.06 19.5 i F51 – Pan-STARRS 1, Haleakala MPS 810296
2017 08 15.42443 21 37 12.590 -12 10 04.05 19.5 i F51 – Pan-STARRS 1, Haleakala MPS 810296
2017 08 15.43616 21 37 12.012 -12 10 08.10 19.6 i F51 – Pan-STARRS 1, Haleakala MPS 810296
2017 08 15.44789 21 37 11.440 -12 10 12.06 19.4 i F51 – Pan-STARRS 1, Haleakala MPS 810296
2017 08 19.38429 21 34 14.125 -12 32 42.34 19.7 w F51 – Pan-STARRS 1, Haleakala MPS 812090
2017 08 19.39907 21 34 13.413 -12 32 47.41 19.6 w F51 – Pan-STARRS 1, Haleakala MPS 812090
2017 08 19.41383 21 34 12.703 -12 32 52.49 19.8 w F51 – Pan-STARRS 1, Haleakala MPS 812090
2017 08 19.42859 21 34 11.996 -12 32 57.59 19.8 w F51 – Pan-STARRS 1, Haleakala MPS 812090
2017 09 13.32113 21 20 49.795 -14 31 22.92 20.6 w F51 – Pan-STARRS 1, Haleakala MPS 815569
2017 09 13.33473 21 20 49.568 -14 31 25.55 20.5 w F51 – Pan-STARRS 1, Haleakala MPS 815569
2017 09 13.34833 21 20 49.336 -14 31 28.19 20.7 w F51 – Pan-STARRS 1, Haleakala MPS 815569
2017 09 13.36194 21 20 49.111 -14 31 30.82 20.7 w F51 – Pan-STARRS 1, Haleakala MPS 815569
2017 11 07.22740 21 53 00.969 -13 19 50.52 21.9 w F51 – Pan-STARRS 1, Haleakala MPS 835545
2017 11 07.23916 21 53 01.819 -13 19 46.50 22.1 w F51 – Pan-STARRS 1, Haleakala MPS 835545
2017 11 07.25094 21 53 02.666 -13 19 42.71 22.2 w F51 – Pan-STARRS 1, Haleakala MPS 835545